<?xml version="1.0" encoding="UTF-8" standalone="yes"?>
<gpx version="1.1" creator="MagicMaps Tour Explorer"
     xmlns:xsi="http://www.w3.org/2001/XMLSchema-instance"
     xmlns="http://www.topografix.com/GPX/1/1">
  <trk>
    <name>marmolata normal s</name>
    <trkseg>
      <trkpt lat="46.458601000" lon="11.863600002">
        <ele>2086.2</ele>
        <time>1970-01-01T01:00:00</time>
      </trkpt>
      <trkpt lat="46.458394000" lon="11.863356002">
        <ele>2086.7</ele>
        <time>1970-01-01T01:00:00</time>
      </trkpt>
      <trkpt lat="46.458117000" lon="11.863259002">
        <ele>2094.4</ele>
        <time>1970-01-01T01:00:00</time>
      </trkpt>
      <trkpt lat="46.458247000" lon="11.863116002">
        <ele>2095.3</ele>
        <time>1970-01-01T01:00:00</time>
      </trkpt>
      <trkpt lat="46.458053000" lon="11.862718002">
        <ele>2103.5</ele>
        <time>1970-01-01T01:00:00</time>
      </trkpt>
      <trkpt lat="46.458067000" lon="11.862495002">
        <ele>2108.3</ele>
        <time>1970-01-01T01:00:00</time>
      </trkpt>
      <trkpt lat="46.457595000" lon="11.862636002">
        <ele>2120.8</ele>
        <time>1970-01-01T01:00:00</time>
      </trkpt>
      <trkpt lat="46.457284000" lon="11.862898002">
        <ele>2129.5</ele>
        <time>1970-01-01T01:00:00</time>
      </trkpt>
      <trkpt lat="46.457084000" lon="11.862877002">
        <ele>2131.9</ele>
        <time>1970-01-01T01:00:00</time>
      </trkpt>
      <trkpt lat="46.456691000" lon="11.863429002">
        <ele>2138.6</ele>
        <time>1970-01-01T01:00:00</time>
      </trkpt>
      <trkpt lat="46.455953000" lon="11.864063002">
        <ele>2169.8</ele>
        <time>1970-01-01T01:00:00</time>
      </trkpt>
      <trkpt lat="46.455888000" lon="11.864006002">
        <ele>2174.2</ele>
        <time>1970-01-01T01:00:00</time>
      </trkpt>
      <trkpt lat="46.455421000" lon="11.864381002">
        <ele>2192.4</ele>
        <time>1970-01-01T01:00:00</time>
      </trkpt>
      <trkpt lat="46.455444000" lon="11.864168002">
        <ele>2197.7</ele>
        <time>1970-01-01T01:00:00</time>
      </trkpt>
      <trkpt lat="46.455333000" lon="11.864100002">
        <ele>2203.5</ele>
        <time>1970-01-01T01:00:00</time>
      </trkpt>
      <trkpt lat="46.455155000" lon="11.864241002">
        <ele>2211.7</ele>
        <time>1970-01-01T01:00:00</time>
      </trkpt>
      <trkpt lat="46.455146000" lon="11.863839002">
        <ele>2218.9</ele>
        <time>1970-01-01T01:00:00</time>
      </trkpt>
      <trkpt lat="46.455014000" lon="11.863646002">
        <ele>2226.1</ele>
        <time>1970-01-01T01:00:00</time>
      </trkpt>
      <trkpt lat="46.454929000" lon="11.863833002">
        <ele>2230.9</ele>
        <time>1970-01-01T01:00:00</time>
      </trkpt>
      <trkpt lat="46.454824000" lon="11.863835002">
        <ele>2237.1</ele>
        <time>1970-01-01T01:00:00</time>
      </trkpt>
      <trkpt lat="46.454903000" lon="11.862980002">
        <ele>2250.6</ele>
        <time>1970-01-01T01:00:00</time>
      </trkpt>
      <trkpt lat="46.454420000" lon="11.863107002">
        <ele>2261.6</ele>
        <time>1970-01-01T01:00:00</time>
      </trkpt>
      <trkpt lat="46.454319000" lon="11.863020002">
        <ele>2264.5</ele>
        <time>1970-01-01T01:00:00</time>
      </trkpt>
      <trkpt lat="46.454708000" lon="11.862179002">
        <ele>2288.1</ele>
        <time>1970-01-01T01:00:00</time>
      </trkpt>
      <trkpt lat="46.454459000" lon="11.861846002">
        <ele>2303.5</ele>
        <time>1970-01-01T01:00:00</time>
      </trkpt>
      <trkpt lat="46.454496000" lon="11.861670002">
        <ele>2310.2</ele>
        <time>1970-01-01T01:00:00</time>
      </trkpt>
      <trkpt lat="46.454136000" lon="11.861655002">
        <ele>2319.3</ele>
        <time>1970-01-01T01:00:00</time>
      </trkpt>
      <trkpt lat="46.453613000" lon="11.861270002">
        <ele>2335.7</ele>
        <time>1970-01-01T01:00:00</time>
      </trkpt>
      <trkpt lat="46.453378000" lon="11.861239002">
        <ele>2341.9</ele>
        <time>1970-01-01T01:00:00</time>
      </trkpt>
      <trkpt lat="46.453398000" lon="11.860970002">
        <ele>2346.2</ele>
        <time>1970-01-01T01:00:00</time>
      </trkpt>
      <trkpt lat="46.452993000" lon="11.860668002">
        <ele>2357.8</ele>
        <time>1970-01-01T01:00:00</time>
      </trkpt>
      <trkpt lat="46.452469000" lon="11.860864002">
        <ele>2373.2</ele>
        <time>1970-01-01T01:00:00</time>
      </trkpt>
      <trkpt lat="46.452522000" lon="11.860352002">
        <ele>2386.6</ele>
        <time>1970-01-01T01:00:00</time>
      </trkpt>
      <trkpt lat="46.452143000" lon="11.860358002">
        <ele>2398.6</ele>
        <time>1970-01-01T01:00:00</time>
      </trkpt>
      <trkpt lat="46.452271000" lon="11.860044002">
        <ele>2406.8</ele>
        <time>1970-01-01T01:00:00</time>
      </trkpt>
      <trkpt lat="46.451953000" lon="11.860058002">
        <ele>2417.9</ele>
        <time>1970-01-01T01:00:00</time>
      </trkpt>
      <trkpt lat="46.451992000" lon="11.859838002">
        <ele>2424.6</ele>
        <time>1970-01-01T01:00:00</time>
      </trkpt>
      <trkpt lat="46.451703000" lon="11.859751002">
        <ele>2434.7</ele>
        <time>1970-01-01T01:00:00</time>
      </trkpt>
      <trkpt lat="46.451504000" lon="11.859535002">
        <ele>2442.4</ele>
        <time>1970-01-01T01:00:00</time>
      </trkpt>
      <trkpt lat="46.451276000" lon="11.859689002">
        <ele>2449.6</ele>
        <time>1970-01-01T01:00:00</time>
      </trkpt>
      <trkpt lat="46.451016000" lon="11.859573002">
        <ele>2454.4</ele>
        <time>1970-01-01T01:00:00</time>
      </trkpt>
      <trkpt lat="46.450781000" lon="11.859725002">
        <ele>2462.1</ele>
        <time>1970-01-01T01:00:00</time>
      </trkpt>
      <trkpt lat="46.450449000" lon="11.859604002">
        <ele>2470.7</ele>
        <time>1970-01-01T01:00:00</time>
      </trkpt>
      <trkpt lat="46.450204000" lon="11.859759002">
        <ele>2477.0</ele>
        <time>1970-01-01T01:00:00</time>
      </trkpt>
      <trkpt lat="46.450016000" lon="11.859688002">
        <ele>2479.4</ele>
        <time>1970-01-01T01:00:00</time>
      </trkpt>
      <trkpt lat="46.449934000" lon="11.859452002">
        <ele>2483.7</ele>
        <time>1970-01-01T01:00:00</time>
      </trkpt>
      <trkpt lat="46.449807000" lon="11.859471002">
        <ele>2489.0</ele>
        <time>1970-01-01T01:00:00</time>
      </trkpt>
      <trkpt lat="46.449205000" lon="11.859653002">
        <ele>2517.8</ele>
        <time>1970-01-01T01:00:00</time>
      </trkpt>
      <trkpt lat="46.448943000" lon="11.859991002">
        <ele>2529.4</ele>
        <time>1970-01-01T01:00:00</time>
      </trkpt>
      <trkpt lat="46.448647000" lon="11.859868002">
        <ele>2542.3</ele>
        <time>1970-01-01T01:00:00</time>
      </trkpt>
      <trkpt lat="46.448390000" lon="11.859971002">
        <ele>2551.0</ele>
        <time>1970-01-01T01:00:00</time>
      </trkpt>
      <trkpt lat="46.447994000" lon="11.859773002">
        <ele>2555.3</ele>
        <time>1970-01-01T01:00:00</time>
      </trkpt>
      <trkpt lat="46.447798000" lon="11.859537002">
        <ele>2563.5</ele>
        <time>1970-01-01T01:00:00</time>
      </trkpt>
      <trkpt lat="46.447441000" lon="11.859371002">
        <ele>2578.4</ele>
        <time>1970-01-01T01:00:00</time>
      </trkpt>
      <trkpt lat="46.446994000" lon="11.859630002">
        <ele>2597.6</ele>
        <time>1970-01-01T01:00:00</time>
      </trkpt>
      <trkpt lat="46.446703000" lon="11.859948002">
        <ele>2605.3</ele>
        <time>1970-01-01T01:00:00</time>
      </trkpt>
      <trkpt lat="46.446499000" lon="11.860016002">
        <ele>2606.8</ele>
        <time>1970-01-01T01:00:00</time>
      </trkpt>
      <trkpt lat="46.446142000" lon="11.859843002">
        <ele>2625.0</ele>
        <time>1970-01-01T01:00:00</time>
      </trkpt>
      <trkpt lat="46.445913000" lon="11.859979002">
        <ele>2633.2</ele>
        <time>1970-01-01T01:00:00</time>
      </trkpt>
      <trkpt lat="46.445703000" lon="11.859768002">
        <ele>2639.4</ele>
        <time>1970-01-01T01:00:00</time>
      </trkpt>
      <trkpt lat="46.445542000" lon="11.859790002">
        <ele>2645.7</ele>
        <time>1970-01-01T01:00:00</time>
      </trkpt>
      <trkpt lat="46.445381000" lon="11.859382002">
        <ele>2649.5</ele>
        <time>1970-01-01T01:00:00</time>
      </trkpt>
      <trkpt lat="46.444895000" lon="11.859457002">
        <ele>2659.1</ele>
        <time>1970-01-01T01:00:00</time>
      </trkpt>
      <trkpt lat="46.444640000" lon="11.859281002">
        <ele>2664.0</ele>
        <time>1970-01-01T01:00:00</time>
      </trkpt>
      <trkpt lat="46.444405000" lon="11.859416002">
        <ele>2672.1</ele>
        <time>1970-01-01T01:00:00</time>
      </trkpt>
      <trkpt lat="46.443943000" lon="11.859273002">
        <ele>2685.6</ele>
        <time>1970-01-01T01:00:00</time>
      </trkpt>
      <trkpt lat="46.443688000" lon="11.859565002">
        <ele>2692.3</ele>
        <time>1970-01-01T01:00:00</time>
      </trkpt>
      <trkpt lat="46.443493000" lon="11.859119002">
        <ele>2705.8</ele>
        <time>1970-01-01T01:00:00</time>
      </trkpt>
      <trkpt lat="46.443092000" lon="11.858905002">
        <ele>2724.0</ele>
        <time>1970-01-01T01:00:00</time>
      </trkpt>
      <trkpt lat="46.443022000" lon="11.858753002">
        <ele>2727.4</ele>
        <time>1970-01-01T01:00:00</time>
      </trkpt>
      <trkpt lat="46.442805000" lon="11.858698002">
        <ele>2728.8</ele>
        <time>1970-01-01T01:00:00</time>
      </trkpt>
      <trkpt lat="46.442516000" lon="11.858410002">
        <ele>2738.0</ele>
        <time>1970-01-01T01:00:00</time>
      </trkpt>
      <trkpt lat="46.442516000" lon="11.858413002">
        <ele>2728.8</ele>
        <time>1970-01-01T01:00:00</time>
      </trkpt>
      <trkpt lat="46.441389000" lon="11.858591002">
        <ele>2769.7</ele>
        <time>1970-01-01T01:00:00</time>
      </trkpt>
      <trkpt lat="46.440560000" lon="11.858554002">
        <ele>2809.6</ele>
        <time>1970-01-01T01:00:00</time>
      </trkpt>
      <trkpt lat="46.439822000" lon="11.858468002">
        <ele>2861.5</ele>
        <time>1970-01-01T01:00:00</time>
      </trkpt>
      <trkpt lat="46.439564000" lon="11.858164002">
        <ele>2877.8</ele>
        <time>1970-01-01T01:00:00</time>
      </trkpt>
      <trkpt lat="46.439375000" lon="11.857545002">
        <ele>2892.7</ele>
        <time>1970-01-01T01:00:00</time>
      </trkpt>
      <trkpt lat="46.438893000" lon="11.857121002">
        <ele>2913.4</ele>
        <time>1970-01-01T01:00:00</time>
      </trkpt>
      <trkpt lat="46.438218000" lon="11.856944002">
        <ele>2939.4</ele>
        <time>1970-01-01T01:00:00</time>
      </trkpt>
      <trkpt lat="46.437679000" lon="11.856706002">
        <ele>2970.1</ele>
        <time>1970-01-01T01:00:00</time>
      </trkpt>
      <trkpt lat="46.437298000" lon="11.855941002">
        <ele>2999.9</ele>
        <time>1970-01-01T01:00:00</time>
      </trkpt>
      <trkpt lat="46.436661000" lon="11.855379002">
        <ele>3055.7</ele>
        <time>1970-01-01T01:00:00</time>
      </trkpt>
      <trkpt lat="46.436367000" lon="11.854563002">
        <ele>3083.1</ele>
        <time>1970-01-01T01:00:00</time>
      </trkpt>
      <trkpt lat="46.436008000" lon="11.852869002">
        <ele>3131.2</ele>
        <time>1970-01-01T01:00:00</time>
      </trkpt>
      <trkpt lat="46.436220000" lon="11.852524002">
        <ele>3133.1</ele>
        <time>1970-01-01T01:00:00</time>
      </trkpt>
      <trkpt lat="46.436709000" lon="11.852149002">
        <ele>3141.2</ele>
        <time>1970-01-01T01:00:00</time>
      </trkpt>
      <trkpt lat="46.436950000" lon="11.852114002">
        <ele>3159.5</ele>
        <time>1970-01-01T01:00:00</time>
      </trkpt>
      <trkpt lat="46.437373000" lon="11.851614002">
        <ele>3211.4</ele>
        <time>1970-01-01T01:00:00</time>
      </trkpt>
      <trkpt lat="46.436403000" lon="11.850619002">
        <ele>3266.2</ele>
        <time>1970-01-01T01:00:00</time>
      </trkpt>
      <trkpt lat="46.435296000" lon="11.850396002">
        <ele>3308.0</ele>
        <time>1970-01-01T01:00:00</time>
      </trkpt>
      <trkpt lat="46.434415000" lon="11.850641002">
        <ele>3335.4</ele>
        <time>1970-01-01T01:00:00</time>
      </trkpt>
      <trkpt lat="46.434259000" lon="11.850544002">
        <ele>3334.0</ele>
        <time>1970-01-01T01:00:00</time>
      </trkpt>
      <trkpt lat="46.434573000" lon="11.851374002">
        <ele>3340.2</ele>
        <time>1970-01-01T01:00:00</time>
      </trkpt>
    </trkseg>
  </trk>
</gpx>
